Home   Weather   Post Falls   Past weeks

Flag for USA Past Weather in Post Falls, Idaho, USA — Yesterday and Last 2 Weeks

Now
13 °F

Clear.


Feels Like: 1 °F
Forecast: 9 / 22 °F
Wind: 9 mph from Northeast

Location: Coeur d'Alene Weather Reporting System

Current Time: Dec 8, 2016 at 2:01:50 am

Latest Report: Dec 8, 2016 at 12:56 am


Visibility: 10 mi

Pressure: 30.58 "Hg (28.04 "Hg at 664m altitude)

Humidity: 77%

Dew Point: 7 °F

Location of Post FallsLocation

Past Weather in Post Falls — Graph

°F

Post Falls Temperature Yesterday

Maximum temperature yesterday: 26 °F (at 12:56 pm)
Minimum temperature yesterday: 13 °F (at 9:56 pm)
Average temperature yesterday: 20 °F

High & Low Weather Summary for the Past Weeks

 TemperatureHumidityPressure
High49 °F (Nov 26, 12:56 pm)100% (Nov 23, 12:56 am)30.60 "Hg (Nov 23, 12:56 am)
Low13 °F (Dec 7, 9:56 pm)46% (Nov 24, 9:56 pm)29.54 "Hg (Nov 26, 11:56 pm)
Average34 °F85%30.09 "Hg
* Reported Nov 22 11:56 pm — Dec 7 11:56 pm, Post Falls, Weather by CustomWeather, © 2016

Note: Actual official high and low records may vary slightly from our data, if they occured in-between our weather recording intervals... More about our weather records

Advertising

Post Falls Weather History for the Previous 24 Hours

Scroll right to see more
 ConditionsComfort  
Time TempWeatherWind HumidityBarometerVisibility
11:56 pm
Wed, Dec 7
13 °FClear.7 mph77%30.59 "Hg10 mi
10:56 pm14 °FClear.9 mph73%30.59 "Hg10 mi
9:56 pm13 °FClear.9 mph81%30.60 "Hg10 mi
8:56 pm15 °FClear.10 mph74%30.60 "Hg10 mi
7:56 pm17 °FClear.12 mph68%30.60 "Hg10 mi
6:56 pm17 °FClear.12 mph68%30.60 "Hg10 mi
5:56 pm18 °FClear.12 mph71%30.60 "Hg10 mi
4:56 pm19 °FClear.10 mph71%30.60 "Hg10 mi
3:56 pm22 °FClear.10 mph62%30.58 "Hg10 mi
2:56 pm26 °FPartly sunny.14 mph57%30.57 "Hg10 mi
1:56 pm25 °FPassing clouds.13 mph60%30.56 "Hg10 mi
12:56 pm26 °FOvercast.13 mph60%30.56 "Hg10 mi
11:56 am25 °FOvercast.14 mph60%30.57 "Hg10 mi
10:56 am24 °FOvercast.12 mph62%30.58 "Hg10 mi
9:56 am22 °FMostly cloudy.13 mph66%30.58 "Hg10 mi
8:56 am21 °FOvercast.12 mph65%30.57 "Hg10 mi
7:56 am21 °FOvercast.10 mph68%30.55 "Hg10 mi
6:56 am21 °FOvercast.9 mph68%30.53 "Hg10 mi
5:56 am21 °FLight snow. Overcast.10 mph68%30.51 "Hg9 mi
4:56 am21 °FLight snow. Overcast.9 mph74%30.49 "Hg9 mi
3:56 am21 °FOvercast.7 mph74%30.47 "Hg10 mi
2:56 am21 °FOvercast.8 mph74%30.45 "Hg10 mi
Weather by CustomWeather, © 2016

See weather overviewHow to use our weather pages